Terminal Aerodrome Forecast
Issued by NWS Salt Lake City, UT

Home | Current Version | Previous Version | Text Only | Print | Product List | Glossary On
Versions: 1 2 3 4 5 6 7 8 9 10 11 12 13 14 15 16 17 18 19 20 21 22 23 24 25 26 27 28 29 30 31 32 33 34 35 36 37 38 39 40 41 42 43 44 45 46 47 48 49 50
000
FTUS45 KSLC 011120
TAFSLC
TAF
KSLC 011120Z 0112/0218 33003KT 6SM BR SCT020 BKN040
     FM011400 18005KT P6SM SCT040 BKN080
     FM011700 32007KT P6SM SCT040 BKN080
     FM020600 15004KT P6SM VCSH SCT020 BKN050
     FM021400 32004KT 2SM -SN BR SCT007 BKN015=

USA.gov is the U.S. government's official web portal to all federal, state and local government web resources and services.